Weather History for Worland, WY

Change the Weather History Date:

Wednesday, January 16, 2013

  Actual Average Record
Temperature  
Mean Temperature 14 °F 17 °F  
Max Temperature 26 °F 31 °F 61 °F (1974)
Min Temperature 1 °F 3 °F -23 °F (1962)
Degree Days  
Heating Degree Days 51 48  
Month to date heating degree days 869 778  
Since 1 July heating degree days 3611 4141  
Cooling Degree Days 0 0  
Month to date cooling degree days 0 0  
Year to date cooling degree days 0 0  
Moisture  
Dew Point 5 °F    
Average Humidity 79    
Maximum Humidity 95    
Minimum Humidity 62    
Precipitation  
Precipitation 0.00 in 0.01 in 0.14 in (1975)
Month to date precipitation 0.04 0.12  
Year to date precipitation 0.04 0.12  
Sea Level Pressure  
Sea Level Pressure 30.51 in    
Wind  
Wind Speed 2 mph (SSW)    
Max Wind Speed 9 mph    
Max Gust Speed 10 mph    
Visibility 10 miles    
Events      
T = Trace of Precipitation, MM = Missing Value Source: NWS Daily Summary

Daily Weather History Graph

Daily Weather History Graph

Search for Another Location

Airport:

Trip Planner

Search our weather history database for the weather conditions in past years. The results will help you decide how hot, cold, wet, or windy it might be!

Date:

Astronomy

Jan. 16, 2013 Rise Set
Actual Time 7:42 AM MST 5:01 PM MST
Civil Twilight 7:10 AM MST 5:33 PM MST
Nautical Twilight 6:34 AM MST 6:08 PM MST
Astronomical Twilight 6:00 AM MST 6:43 PM MST
Moon 10:07 AM MST (1/16) 11:10 PM MST (1/16)
Length of Visible Light 10h 22m
Length of Day
9h 18m
Waxing Crescent, 29% of the Moon is Illuminated
Jan 16
Waxing Crescent
Jan 18
First Quarter
Jan 26
Full
Feb 3
Last Quarter
Feb 10
New

Hourly Weather History & Observations

Time (MST) Temp. Windchill Dew Point Humidity Pressure Visibility Wind Dir Wind Speed Gust Speed Precip Events Conditions
12:53 AM 6.1 °F - 1.9 °F 83% 30.42 in 10.0 mi Calm Calm - N/A   Clear
1:53 AM 5.0 °F -5.6 °F 1.0 °F 84% 30.43 in 10.0 mi SSW 5.8 mph - N/A   Clear
2:53 AM 5.0 °F -2.1 °F 1.0 °F 84% 30.43 in 10.0 mi SSW 3.5 mph - N/A   Clear
3:53 AM 5.0 °F -4.1 °F 1.0 °F 84% 30.44 in 10.0 mi South 4.6 mph - N/A   Clear
4:53 AM 8.1 °F -0.5 °F 3.0 °F 80% 30.42 in 10.0 mi SSW 4.6 mph - N/A   Clear
5:53 AM 1.9 °F - -0.9 °F 88% 30.45 in 10.0 mi Calm Calm - N/A   Clear
6:53 AM 3.0 °F -4.4 °F -0.0 °F 87% 30.48 in 10.0 mi SW 3.5 mph - N/A   Clear
7:53 AM 3.9 °F -6.9 °F -0.0 °F 84% 30.51 in 10.0 mi South 5.8 mph - N/A   Clear
8:53 AM 7.0 °F 0.1 °F 3.0 °F 84% 30.52 in 10.0 mi South 3.5 mph - N/A   Clear
9:53 AM 10.0 °F -2.9 °F 3.9 °F 76% 30.53 in 10.0 mi SW 9.2 mph - N/A   Clear
10:53 AM 15.1 °F - 6.1 °F 68% 30.53 in 10.0 mi Calm Calm - N/A   Clear
11:53 AM 18.0 °F - 9.0 °F 68% 30.51 in 10.0 mi Calm Calm - N/A   Clear
1:53 PM 24.1 °F - 14.0 °F 65% 30.45 in 10.0 mi Calm Calm - N/A   Clear
2:53 PM 25.0 °F - 14.0 °F 63% 30.46 in 10.0 mi Calm Calm - N/A   Clear
3:53 PM 23.0 °F - 14.0 °F 68% 30.47 in 10.0 mi Calm Calm - N/A   Clear
4:53 PM 19.0 °F - 12.0 °F 74% 30.49 in 10.0 mi Calm Calm - N/A   Clear
5:53 PM 10.9 °F 2.9 °F 7.0 °F 84% 30.55 in 10.0 mi ENE 4.6 mph - N/A   Clear
6:53 PM 15.1 °F 9.4 °F 9.0 °F 77% 30.57 in 10.0 mi NNW 3.5 mph - N/A   Clear
7:53 PM 7.0 °F - 3.9 °F 87% 30.60 in 10.0 mi Calm Calm - N/A   Clear
8:53 PM 6.1 °F - 3.9 °F 91% 30.60 in 10.0 mi Calm Calm - N/A   Clear
9:53 PM 6.1 °F -2.8 °F 3.0 °F 87% 30.60 in 10.0 mi ENE 4.6 mph - N/A   Clear
10:53 PM 3.9 °F - 1.9 °F 91% 30.59 in 10.0 mi Calm Calm - N/A   Clear
11:53 PM 3.0 °F -6.4 °F 1.0 °F 91% 30.59 in 10.0 mi SW 4.6 mph - N/A   Clear